[[{"header":{"parameterUnit":"m.s-1","parameterCategory":1,"la1":30.2991,"la2":30.254,"lo1":-89.0895,"lo2":-89.0444,"dy":0.0017,"dx":0.0017,"nx":28,"ny":28,"refTime":"2024-12-16T09:00:00:Z","depth":0,"parameterNumber":2,"parameterNumberName":"U-component_of_WINDS"},"data":[0,0,0,0,0,0,0,0,0,0,0,0,0,0,0,0,0,0,0,0,0,0,0,0,0,0,0,0,0,0,0,0,0,0,0,0,0,0,0,0,0,0,0,0,0,0,0,0,0,0,0,0,0,0,0,0,0,0,-3.3886,-3.3886,0,-3.3855,-3.3855,-3.3855,-3.3743,-3.3741,-3.3738,-3.3736,-3.3706,-3.3708,-3.371,0,0,0,0,0,0,0,0,0,0,0,0,0,-3.3853,-3.3854,-3.3886,-3.3886,-3.3885,-3.3855,-3.3855,-3.3854,-3.3744,-3.374,-3.3737,-3.3734,-3.3706,-3.3708,-3.371,0,0,0,0,0,0,0,0,0,0,0,0,0,-3.3849,-3.3854,-3.3886,-3.3826,-3.3821,-3.3855,-3.3855,-3.3854,-3.3744,-3.374,-3.3737,-3.3733,-3.3705,-3.3708,-3.371,-3.3801,0,0,-3.3717,-3.3718,0,0,0,0,0,0,0,0,-3.3849,-3.385,-3.3836,-3.3831,-3.3824,-3.3799,-3.3832,-3.3836,-3.3745,-3.3773,-3.3736,-3.3731,-3.374,-3.374,-3.3742,-3.3799,-3.3798,-3.3717,-3.3719,-3.372,-3.3721,0,0,0,0,0,0,0,-3.385,-3.3851,-3.3874,-3.3836,-3.3829,-3.3802,-3.3797,-3.3832,-3.3779,-3.3771,-3.3762,-3.376,-3.3737,-3.374,-3.3741,-3.3798,-3.3717,-3.3719,-3.3721,-3.3722,-3.3929,-3.3933,0,0,0,0,0,0,-3.3858,-3.3852,-3.3875,-3.3873,-3.3828,-3.3806,-3.3801,-3.3811,-3.3778,-3.3769,-3.3763,-3.3755,-3.3738,-3.3738,-3.3739,-3.3844,-3.372,-3.3722,-3.3723,-3.3925,-3.393,-3.3934,0,0,0,0,0,0,-3.3858,-3.3861,-3.3876,-3.386,-3.386,-3.381,-3.3823,-3.3812,-3.3816,-3.3772,-3.3763,-3.3777,-3.3735,-3.3736,-3.3786,-3.3841,-3.3723,-3.3725,-3.392,-3.3927,-3.3932,-3.4054,0,0,0,0,0,0,-3.3857,-3.3862,-3.3895,-3.3862,-3.3861,-3.3923,-3.3826,-3.3815,-3.382,-3.3809,-3.3782,-3.3774,-3.3732,-3.3783,-3.3789,-3.3843,-3.3727,-3.3915,-3.3923,-3.393,-3.4045,-3.4063,-3.4079,0,0,0,0,0,-3.3857,-3.393,-3.3897,-3.39,-3.3902,-3.3926,-3.3926,-3.3875,-3.3825,-3.3858,-3.3831,-3.3775,-3.3835,-3.379,-3.3795,-3.385,-3.3911,-3.3921,-3.393,-3.4037,-3.406,-3.4079,0,0,0,0,0,0,-3.3971,-3.3925,-3.3887,-3.3953,-3.3944,-3.3907,-3.3948,-3.3901,-3.3907,-3.3896,-3.3834,-3.3829,-3.3889,-3.3874,-3.3825,-3.3937,-3.3864,-3.3875,-3.3944,-3.3965,-3.3982,-3.3984,-3.3729,0,0,0,0,0,-3.4004,-3.4027,-3.3986,-3.4048,-3.4045,-3.3998,-3.4007,-3.3968,-3.3957,-3.3954,-3.3929,-3.3922,-3.3939,-3.3951,-3.3964,-3.4043,-3.4036,-3.4083,-3.4101,-3.4115,-3.4125,-3.4166,-3.4187,-3.3965,-3.3964,-3.3964,0,0,-3.4072,-3.405,-3.4068,-3.407,-3.4059,-3.4086,-3.3995,-3.4027,-3.4046,-3.3958,-3.4004,-3.3987,-3.3974,-3.404,-3.4067,-3.4029,-3.4185,-3.4127,-3.4139,-3.414,-3.4178,-3.4199,-3.4218,-3.3971,-3.397,-3.3969,0,0,-3.421,-3.4195,-3.4245,-3.4236,-3.4221,-3.4189,-3.4202,-3.4172,-3.4157,-3.4202,-3.4137,-3.416,-3.4191,-3.4184,-3.4186,-3.4324,-3.4273,-3.433,-3.442,-3.4462,-3.4479,-3.4494,-3.4544,-3.4563,-3.434,-3.434,-3.434,0,-3.4297,-3.4333,-3.4277,-3.4313,-3.4316,-3.4238,-3.429,-3.4284,-3.4274,-3.4279,-3.4237,-3.4274,-3.426,-3.4323,-3.4357,-3.436,-3.4373,-3.4332,-3.4481,-3.4496,-3.4509,-3.4556,-3.4575,-3.4347,-3.4346,-3.4346,-3.4345,0,-3.4441,-3.4467,-3.451,-3.4502,-3.451,-3.4554,-3.4506,-3.4521,-3.4483,-3.4457,-3.4505,-3.4486,-3.4494,-3.4506,-3.4469,-3.4565,-3.4542,-3.4492,-3.4417,-3.4538,-3.4581,-3.4599,-3.4357,-3.4355,-3.4353,-3.4351,0,0,-3.4648,-3.461,-3.4627,-3.4623,-3.4601,-3.4621,-3.4662,-3.467,-3.4685,-3.4681,-3.4715,-3.4743,-3.4697,-3.4698,-3.466,-3.4697,-3.4808,-3.4641,-3.464,-3.4673,-3.4914,-3.4952,-3.4973,-3.4775,-3.4778,-3.4781,-3.4915,0,-3.4779,-3.4845,-3.4797,-3.4873,-3.4897,-3.4825,-3.4861,-3.4852,-3.4829,-3.4847,-3.4822,-3.4843,-3.478,-3.4781,-3.4813,-3.4788,-3.4856,-3.4778,-3.4807,-3.4808,-3.4812,-3.4995,-3.5035,-3.5162,-3.4931,-3.4934,-3.4936,0,-3.4939,-3.4943,-3.5021,-3.4996,-3.5004,-3.5037,-3.5042,-3.506,-3.505,-3.503,-3.5033,-3.4986,-3.5026,-3.4954,-3.5008,-3.4956,-3.4966,-3.4956,-3.4959,-3.496,-3.4879,-3.5001,-3.5202,-3.5221,-3.4962,-3.496,-3.4958,0,-3.5083,-3.5108,-3.5158,-3.5157,-3.5128,-3.5154,-3.5143,-3.5129,-3.5138,-3.5142,-3.5147,-3.5156,-3.5162,-3.5171,-3.5128,-3.5079,-3.5189,-3.5113,-3.5175,-3.5176,-3.5201,-3.52,-3.5406,-3.5208,-3.5207,-3.5207,-3.5207,0,-3.5234,-3.5284,-3.5222,-3.5253,-3.5308,-3.5254,-3.531,-3.5292,-3.5281,-3.5308,-3.5246,-3.5273,-3.5216,-3.5237,-3.5205,-3.5256,-3.5258,-3.5245,-3.5235,-3.525,-3.5252,-3.5255,-3.5245,-3.5212,-3.5211,-3.521,-3.5209,0,-3.5403,-3.5363,-3.5413,-3.5383,-3.5376,-3.5419,-3.5393,-3.5421,-3.5394,-3.543,-3.5435,-3.5393,-3.5416,-3.5375,-3.5392,-3.537,-3.5442,-3.5419,-3.5445,-3.5438,-3.5503,-3.5497,-3.5717,-3.5744,-3.553,-3.5532,-3.5533,0,-3.5501,-3.5539,-3.5513,-3.5526,-3.5519,-3.5542,-3.555,-3.5499,-3.5511,-3.5503,-3.5533,-3.555,-3.5561,-3.56,-3.5572,-3.5586,-3.5562,-3.5639,-3.5564,-3.5578,-3.5564,-3.5562,-3.5566,-3.5654,-3.5657,-3.5659,-3.566,0,-3.5681,-3.566,-3.5673,-3.5682,-3.5694,-3.5698,-3.5698,-3.5713,-3.5659,-3.5675,-3.5697,-3.5706,-3.5724,-3.5742,-3.5749,-3.5739,-3.5692,-3.5685,-3.57,-3.5715,-3.5729,-3.5722,-3.5487,-3.5679,-3.5678,-3.5676,-3.5675,-3.5674,-3.5817,-3.5847,-3.5834,-3.5853,-3.5847,-3.5849,-3.5874,-3.5851,-3.5869,-3.5879,-3.5848,-3.5878,-3.5869,-3.5873,-3.5869,-3.5892,-3.5858,-3.588,-3.5885,-3.5892,-3.5902,-3.5726,-3.5893,-3.5893,-3.5892,-3.5891,-3.5891,0,-3.5993,-3.5982,-3.5999,-3.6001,-3.6016,-3.597,-3.5968,-3.5984,-3.6011,-3.6006,-3.6018,-3.6045,-3.6063,-3.6037,-3.6051,-3.6075,-3.6054,-3.608,-3.6078,-3.6077,-3.5931,-3.5917,-3.6097,-3.6097,-3.6097,-3.6097,-3.6097,-3.6097,-3.6086,-3.6135,-3.6113,-3.616,-3.6148,-3.6176,-3.6179,-3.6181,-3.6177,-3.6209,-3.6224,-3.6207,-3.6195,-3.6207,-3.6223,-3.6215,-3.6223,-3.6258,-3.6242,-3.6107,-3.6087,-3.6067,-3.6053,-3.626,-3.626,-3.6385,-3.6387,-3.6387]},{"header":{"parameterUnit":"m.s-1","parameterCategory":1,"la1":30.2991,"la2":30.254,"lo1":-89.0895,"lo2":-89.0444,"dy":0.0017,"dx":0.0017,"nx":28,"ny":28,"refTime":"2024-12-16T09:00:00:Z","depth":0,"parameterNumber":3,"parameterNumberName":"V-component_of_WINDS"},"data":[0,0,0,0,0,0,0,0,0,0,0,0,0,0,0,0,0,0,0,0,0,0,0,0,0,0,0,0,0,0,0,0,0,0,0,0,0,0,0,0,0,0,0,0,0,0,0,0,0,0,0,0,0,0,0,0,0,0,0.6368,0.6368,0,0.6369,0.6369,0.6369,0.6391,0.6392,0.6392,0.6393,0.6392,0.6392,0.6391,0,0,0,0,0,0,0,0,0,0,0,0,0,0.6384,0.6383,0.6368,0.6368,0.6368,0.6369,0.6369,0.6369,0.6391,0.6392,0.6392,0.6393,0.6392,0.6392,0.6391,0,0,0,0,0,0,0,0,0,0,0,0,0,0.638,0.6383,0.6368,0.6379,0.638,0.6369,0.6369,0.6369,0.6391,0.6392,0.6392,0.6393,0.6393,0.6392,0.6391,0.637,0,0,0.6389,0.6388,0,0,0,0,0,0,0,0,0.638,0.638,0.6377,0.6378,0.6379,0.6381,0.6375,0.6369,0.6391,0.6387,0.6393,0.6394,0.6388,0.6387,0.6386,0.637,0.637,0.6389,0.6388,0.6388,0.6388,0,0,0,0,0,0,0,0.6381,0.638,0.6368,0.6377,0.6378,0.6384,0.6384,0.6374,0.6382,0.6387,0.6389,0.6389,0.6388,0.6386,0.6386,0.637,0.6389,0.6388,0.6387,0.6387,0.6339,0.6338,0,0,0,0,0,0,0.6379,0.638,0.6368,0.6369,0.6382,0.6383,0.6383,0.6379,0.6383,0.6384,0.6388,0.639,0.6387,0.6387,0.6386,0.6363,0.6388,0.6387,0.6387,0.6339,0.6338,0.6338,0,0,0,0,0,0,0.638,0.6378,0.6368,0.6375,0.6374,0.6382,0.6377,0.6379,0.6377,0.6383,0.6385,0.6384,0.6388,0.6387,0.6374,0.6363,0.6387,0.6386,0.634,0.6339,0.6338,0.6315,0,0,0,0,0,0,0.638,0.6378,0.637,0.6374,0.6373,0.6356,0.6377,0.6379,0.6376,0.6378,0.638,0.6381,0.6389,0.6375,0.6374,0.6362,0.6385,0.6341,0.634,0.6338,0.6316,0.6313,0.6309,0,0,0,0,0,0.638,0.6362,0.6369,0.6368,0.6363,0.6356,0.6355,0.6364,0.6375,0.6367,0.6371,0.6381,0.6365,0.6374,0.6372,0.636,0.6342,0.634,0.6339,0.6318,0.6313,0.631,0,0,0,0,0,0,0.6355,0.6363,0.6371,0.6353,0.6354,0.6359,0.6349,0.6359,0.6356,0.6358,0.6369,0.6369,0.6355,0.6356,0.6367,0.6341,0.6355,0.6353,0.634,0.6336,0.6333,0.6332,0.6385,0,0,0,0,0,0.6347,0.6341,0.6348,0.6332,0.6332,0.6341,0.6338,0.6345,0.6346,0.6346,0.6349,0.6349,0.6344,0.634,0.6336,0.6317,0.6318,0.6308,0.6305,0.6302,0.63,0.6292,0.6288,0.6332,0.6332,0.6332,0,0,0.6331,0.6335,0.633,0.6327,0.6328,0.6322,0.6341,0.6332,0.6327,0.6344,0.6333,0.6336,0.6336,0.6321,0.6314,0.6322,0.6288,0.63,0.6297,0.6297,0.6289,0.6285,0.6282,0.633,0.6331,0.6331,0,0,0.6299,0.6301,0.6288,0.629,0.6292,0.6299,0.6296,0.63,0.6303,0.6292,0.6306,0.63,0.6291,0.6291,0.629,0.6262,0.6271,0.626,0.6241,0.6234,0.623,0.6227,0.6218,0.6214,0.6258,0.6257,0.6257,0,0.6278,0.6269,0.6281,0.6272,0.6271,0.6288,0.6276,0.6277,0.6277,0.6276,0.6285,0.6275,0.6276,0.6263,0.6256,0.6254,0.6252,0.6259,0.623,0.6227,0.6224,0.6216,0.6212,0.6256,0.6256,0.6256,0.6257,0,0.6245,0.6238,0.6228,0.623,0.6228,0.6217,0.6228,0.6224,0.6233,0.6238,0.6228,0.6231,0.6228,0.6226,0.6233,0.6213,0.6218,0.6228,0.6243,0.6219,0.6211,0.6207,0.6254,0.6255,0.6255,0.6255,0,0,0.6194,0.6204,0.62,0.6202,0.6207,0.6202,0.6194,0.6192,0.619,0.619,0.6184,0.6177,0.6187,0.6186,0.6194,0.6187,0.6165,0.6198,0.6198,0.6192,0.6146,0.6138,0.6134,0.6172,0.6172,0.6171,0.6146,0,0.6163,0.6149,0.6161,0.6145,0.614,0.6157,0.615,0.6152,0.6158,0.6155,0.6161,0.6156,0.6169,0.6169,0.6163,0.6169,0.6156,0.6171,0.6166,0.6166,0.6166,0.6129,0.6121,0.6097,0.6143,0.6142,0.6142,0,0.6125,0.6126,0.6109,0.6118,0.6116,0.6109,0.611,0.6107,0.6111,0.6116,0.6116,0.6126,0.6119,0.6134,0.6125,0.6135,0.6134,0.6137,0.6136,0.6136,0.6152,0.6128,0.6089,0.6086,0.6137,0.6137,0.6137,0,0.6091,0.6087,0.6078,0.6079,0.6088,0.6083,0.6087,0.6092,0.6091,0.6092,0.6092,0.6091,0.6091,0.609,0.6101,0.6111,0.6091,0.6106,0.6095,0.6094,0.6089,0.6089,0.6049,0.6088,0.6088,0.6088,0.6088,0,0.6055,0.6045,0.6063,0.6057,0.6047,0.6061,0.605,0.6055,0.606,0.6056,0.607,0.6066,0.608,0.6077,0.6085,0.6077,0.6077,0.6081,0.6083,0.6079,0.6079,0.6079,0.6081,0.6087,0.6087,0.6088,0.6088,0,0.6015,0.6026,0.6017,0.6028,0.603,0.6022,0.6031,0.6027,0.6034,0.6029,0.6029,0.604,0.6038,0.6049,0.6048,0.6054,0.6042,0.6047,0.6041,0.6042,0.6031,0.6032,0.5989,0.5984,0.6026,0.6026,0.6025,0,0.5991,0.5984,0.5995,0.5994,0.5997,0.5994,0.5995,0.6009,0.6008,0.6014,0.6008,0.6008,0.6008,0.6004,0.6013,0.6013,0.6018,0.6003,0.6018,0.6016,0.6019,0.6019,0.6019,0.6,0.5999,0.5999,0.5999,0,0.5949,0.5956,0.5955,0.5958,0.5958,0.596,0.5963,0.5961,0.5977,0.5975,0.5974,0.5975,0.5976,0.5975,0.5978,0.5981,0.5993,0.5994,0.5992,0.5988,0.5985,0.5987,0.6033,0.5995,0.5995,0.5995,0.5996,0.5996,0.5917,0.5912,0.5919,0.5919,0.5924,0.5927,0.5924,0.5932,0.5931,0.5934,0.5942,0.594,0.5946,0.5951,0.5954,0.5953,0.596,0.5956,0.5955,0.5954,0.5952,0.5986,0.5953,0.5953,0.5953,0.5953,0.5953,0,0.5876,0.5882,0.5882,0.5887,0.5887,0.5899,0.5904,0.5903,0.5902,0.5907,0.5908,0.5907,0.5908,0.5917,0.5919,0.5916,0.5922,0.5916,0.5916,0.5917,0.5945,0.5947,0.5912,0.5912,0.5912,0.5912,0.5912,0.5912,0.5854,0.5848,0.5856,0.5852,0.5858,0.5857,0.5859,0.5862,0.5867,0.5866,0.5867,0.5874,0.5881,0.5884,0.5885,0.5888,0.5888,0.5881,0.5886,0.5911,0.5915,0.5919,0.5921,0.5881,0.5881,0.5858,0.5858,0.5858]}]]